Retour au catalogue

QIANFAN-20

ActifCommunicationsPO
NORAD 61553·PAYLOAD·🇨🇳 China

Lancé Oct 15, 2024 depuis Taiyuan Satellite Launch Center

Loading…

Prochains Passages (prochaines 24 heures)

TLE

FraisSource: Space-Track

Époque: Sep 14, 2026, 21:04 UTC

1 61553U 24185B   26257.87779184  .00000282  00000-0  15479-3 0  9994
2 61553  88.9843  46.8987 0006158 160.5084 199.6337 14.09069634108377

Suivez QIANFAN-20 en temps réel avec AllMySat

Download on the App Store